GSAT0103 (GALILEO-FM3)

Last updated on July 11, 2020, 5:25 a.m. UTC

1 38857U 12055A   20191.87088176  .00000038  00000-0  00000-0 0  9993
2 38857  54.9833 161.1644 0004817 272.6367  87.2655  1.70473895 48190
UTC
Height (km)
Latitude
Longitude
Inclination
Orbital Period
UTC large
Height (km)
Speed (km/s)
/
Latitude / Longitude
Inclination (degrees)
Orbital Period (minutes)
Azimuth
Elevation
Range (km)
Doppler Factor
iOS Compass Heading
iOS Angle

Next 30 passes for location: Hong Kong

Rise time Rise Azimuth (degrees) Set time Set Azimuth (degrees) Duration Max altitude (degrees)

No matching passes for this satellites